Jackson, MI

8:10 AM EST on November 13, 2019 (GMT -0500)
Jackson County-Reynolds

Weather History for KJXN - August, 2019

Change the Weather History Date:

Sunday, August 11, 2019

  Actual Average Record
Temperature  
Mean Temperature 69 °F 70 °F  
Max Temperature 85 °F 81 °F 92 °F (2016)
Min Temperature 53 °F 60 °F 44 °F (1967)
Degree Days  
Heating Degree Days 0 1  
Month to date heating degree days 0 7  
Since 1 June heating degree days 58 73  
Since 1 July heating degree days 0 18  
Cooling Degree Days 4 6  
Month to date cooling degree days 51 66  
Year to date cooling degree days 456 431  
Since 1 June cooling degree days 446 394  
Growing Degree Days 18 (Base 50)    
Moisture  
Dew Point 58 °F    
Average Humidity 74    
Maximum Humidity 100    
Minimum Humidity 47    
Precipitation  
Precipitation 0.00 in 0.11 in 1.22 in (2014)
Month to date precipitation 0.21 1.27  
Year to date precipitation 20.40 18.72  
Sea Level Pressure  
Sea Level Pressure 30.03 in    
Wind  
Wind Speed 4 mph (SW)    
Max Wind Speed 14 mph    
Max Gust Speed 20 mph    
Visibility 8 miles    
Events      
T = Trace of Precipitation, MM = Missing Value Source: NWS Daily Summary

Daily Weather History Graph

Daily Weather History Graph

Search for Another Location

Airport or City:

Astronomy

Aug. 11, 2019 Rise Set
Actual Time 6:40 AM EDT 8:44 PM EDT
Civil Twilight 6:10 AM EDT 9:15 PM EDT
Nautical Twilight 5:32 AM EDT 9:52 PM EDT
Astronomical Twilight 4:51 AM EDT 10:33 PM EDT
Moon 6:25 PM EDT (8/11) 2:58 AM EDT (8/11)
Length of Visible Light 15h 05m
Length of Day
14h 03m
Waxing Gibbous, 87% of the Moon is Illuminated
Aug 11
Waxing Gibbous
Aug 15
Full
Aug 23
Last Quarter
Aug 30
New
Sep 5
First Quarter

Hourly Weather History & Observations

Time (EDT) Temp. Heat Index Dew Point Humidity Pressure Visibility Wind Dir Wind Speed Gust Speed Precip Events Conditions
12:56 AM 60.1 °F - 59.0 °F 96% 30.03 in 10.0 mi Calm Calm - N/A   Clear
1:56 AM 55.0 °F - 55.0 °F 100% 30.04 in 8.0 mi SW 4.6 mph - N/A   Clear
2:56 AM 55.9 °F - 55.9 °F 100% 30.04 in 10.0 mi Calm Calm - N/A   Clear
3:16 AM 55.9 °F - 55.9 °F 100% 30.04 in 1.8 mi Calm Calm - N/A   Clear
3:25 AM 55.9 °F - 55.9 °F 100% 30.04 in 3.0 mi Calm Calm - N/A   Clear
3:56 AM 55.0 °F - 55.0 °F 100% 30.03 in 10.0 mi SW 3.5 mph - N/A   Clear
4:27 AM 55.9 °F - 55.9 °F 100% 30.05 in 1.8 mi Calm Calm - N/A   Clear
4:46 AM 53.1 °F - 53.1 °F 100% 30.05 in 3.0 mi SW 3.5 mph - N/A   Clear
4:56 AM 55.0 °F - 55.0 °F 100% 30.04 in 9.0 mi Calm Calm - N/A   Clear
5:33 AM 54.0 °F - 54.0 °F 100% 30.05 in 2.5 mi Calm Calm - N/A   Clear
5:41 AM 55.9 °F - 55.0 °F 97% 30.05 in 10.0 mi Calm Calm - N/A   Clear
5:56 AM 53.1 °F - 53.1 °F 100% 30.04 in 6.0 mi SW 4.6 mph - N/A   Clear
6:36 AM 54.0 °F - 54.0 °F 100% 30.06 in 2.0 mi Calm Calm - N/A   Clear
6:45 AM 55.0 °F - 55.0 °F 100% 30.06 in 8.0 mi Calm Calm - N/A   Clear
6:51 AM 55.4 °F - 55.4 °F 100% 30.06 in 0.8 mi Calm Calm - N/A   Clear
6:56 AM 53.1 °F - 53.1 °F 100% 30.06 in 8.0 mi Calm Calm - N/A   Clear
7:56 AM 60.1 °F - 60.1 °F 100% 30.06 in 10.0 mi Calm Calm - N/A   Overcast
8:56 AM 64.9 °F - 60.1 °F 84% 30.08 in 10.0 mi SW 3.5 mph - N/A   Scattered Clouds
9:56 AM 68.0 °F - 60.1 °F 76% 30.07 in 10.0 mi West 3.5 mph - N/A   Overcast
10:56 AM 72.0 °F - 61.0 °F 68% 30.08 in 10.0 mi WSW 5.8 mph - N/A   Overcast
11:56 AM 73.9 °F - 60.1 °F 62% 30.08 in 10.0 mi SW 4.6 mph - N/A   Overcast
12:56 PM 80.1 °F 80.9 °F 60.1 °F 50% 30.06 in 10.0 mi SW 8.1 mph - N/A   Clear
1:56 PM 81.0 °F 81.7 °F 61.0 °F 50% 30.06 in 10.0 mi WSW 4.6 mph 16.1 mph N/A   Clear
2:56 PM 82.0 °F 82.4 °F 60.1 °F 47% 30.04 in 10.0 mi SSW 11.5 mph - N/A   Mostly Cloudy
3:56 PM 82.9 °F 83.3 °F 61.0 °F 47% 30.03 in 10.0 mi SW 11.5 mph 17.3 mph N/A   Mostly Cloudy
4:56 PM 82.9 °F 83.7 °F 62.1 °F 49% 30.01 in 10.0 mi WSW 9.2 mph - N/A   Partly Cloudy
5:56 PM 82.0 °F 82.7 °F 61.0 °F 49% 30.00 in 10.0 mi SW 10.4 mph - N/A   Partly Cloudy
6:56 PM 78.1 °F - 62.1 °F 58% 29.98 in 10.0 mi WSW 3.5 mph - N/A   Partly Cloudy
7:56 PM 78.1 °F - 63.0 °F 60% 29.97 in 10.0 mi SSW 3.5 mph - N/A   Overcast
8:56 PM 75.0 °F - 64.9 °F 71% 29.97 in 10.0 mi Calm Calm - N/A   Overcast
9:56 PM 75.9 °F - 63.0 °F 64% 29.97 in 10.0 mi Calm Calm - N/A   Mostly Cloudy
10:56 PM 70.0 °F - 64.9 °F 84% 29.97 in 10.0 mi Calm Calm - N/A   Overcast
11:56 PM 71.1 °F - 63.0 °F 75% 29.96 in 10.0 mi SSW 4.6 mph - N/A   Overcast